Location: Cambridge (historical)
(38.6883°N, 119.0140°W)
Time: 12:18:02
(UTC+00:00)

DELTA 2 R/B (1) - Pass Details

Date: 29 October 2020
Orbit: 790 x 803 km, 39.6° (Epoch: 01 December)

Event Time Altitude Azimuth Distance (km) Brightness Sun altitude
Exits shadow 12:19:23 33° 201° (SSW) 1,316 4.5 -24.1°
Drops below altitude 10° 12:23:55 10° 148° (SSE) 2,365 6.4 -23.2°
Sets 12:26:37 0° 139° (SE) 3,294 7.4 -22.7°
